Time,TemperatureF,DewpointF,PressureIn,WindDirection,WindDirectionDegrees,WindSpeedMPH,WindSpeedGustMPH,Humidity,HourlyPrecipIn,Conditions,Clouds,dailyrainin,SoftwareType,DateUTC
2013-09-28 00:01:00,76.9,74.4,29.91,NE,47,0.0,0.0,92,0.00,CLR,,0.00,WeatherDisplay:10.37,2013-09-28 04:01:00,
2013-09-28 00:06:00,76.7,73.9,29.91,NE,47,0.0,0.0,91,0.00,CLR,,0.00,WeatherDisplay:10.37,2013-09-28 04:06:00,
2013-09-28 00:11:00,76.6,74.1,29.91,NE,47,0.0,0.0,92,0.00,CLR,,0.00,WeatherDisplay:10.37,2013-09-28 04:11:00,
2013-09-28 00:16:00,76.5,74.0,29.91,NE,47,0.0,0.0,92,0.00,CLR,,0.00,WeatherDisplay:10.37,2013-09-28 04:16:00,
2013-09-28 00:21:00,76.4,73.9,29.91,NE,47,0.0,0.0,92,0.00,CLR,,0.00,WeatherDisplay:10.37,2013-09-28 04:21:00,
2013-09-28 00:26:00,76.4,73.9,29.90,NE,47,0.0,0.0,92,0.00,CLR,,0.00,WeatherDisplay:10.37,2013-09-28 04:26:00,
2013-09-28 00:32:00,76.4,73.9,29.90,NE,47,0.0,0.0,92,0.00,CLR,,0.00,WeatherDisplay:10.37,2013-09-28 04:32:00,
2013-09-28 00:36:00,76.5,74.0,29.90,NE,47,0.0,0.0,92,0.00,CLR,,0.00,WeatherDisplay:10.37,2013-09-28 04:36:00,
2013-09-28 00:42:00,76.5,74.3,29.90,NE,47,0.0,0.0,93,0.00,CLR,,0.00,WeatherDisplay:10.37,2013-09-28 04:42:00,
2013-09-28 00:47:00,76.5,74.3,29.90,NE,47,0.0,0.0,93,0.00,CLR,,0.00,WeatherDisplay:10.37,2013-09-28 04:47:00,
2013-09-28 00:52:00,76.3,73.8,29.90,NE,47,0.0,0.0,92,0.00,CLR,,0.00,WeatherDisplay:10.37,2013-09-28 04:52:00,
2013-09-28 00:57:00,76.1,73.6,29.90,NE,47,0.0,0.0,92,0.00,CLR,,0.00,WeatherDisplay:10.37,2013-09-28 04:57:00,
2013-09-28 01:02:00,76.1,73.6,29.90,NE,47,0.0,0.0,92,0.00,CLR,,0.00,WeatherDisplay:10.37,2013-09-28 05:02:00,
2013-09-28 01:07:00,76.1,73.6,29.90,NE,47,0.0,0.0,92,0.00,CLR,,0.00,WeatherDisplay:10.37,2013-09-28 05:07:00,
2013-09-28 01:12:00,76.2,73.7,29.89,NE,47,0.3,2.3,92,0.00,CLR,,0.00,WeatherDisplay:10.37,2013-09-28 05:12:00,
2013-09-28 01:17:00,76.3,73.8,29.90,NE,47,0.2,1.2,92,0.00,CLR,,0.00,WeatherDisplay:10.37,2013-09-28 05:17:00,
2013-09-28 01:22:00,76.3,73.8,29.89,NE,47,0.1,1.2,92,0.00,CLR,,0.00,WeatherDisplay:10.37,2013-09-28 05:22:00,
2013-09-28 01:27:00,76.4,73.9,29.89,NE,47,0.1,1.2,92,0.00,CLR,,0.00,WeatherDisplay:10.37,2013-09-28 05:27:00,
2013-09-28 01:32:00,76.6,74.4,29.89,NE,47,0.0,0.0,93,0.00,CLR,,0.00,WeatherDisplay:10.37,2013-09-28 05:32:00,
2013-09-28 01:37:00,76.7,74.2,29.89,NE,47,0.2,2.3,92,0.00,CLR,,0.00,WeatherDisplay:10.37,2013-09-28 05:37:00,
2013-09-28 01:42:00,76.9,74.4,29.89,NE,47,1.6,1.6,92,0.00,CLR,,0.00,WeatherDisplay:10.37,2013-09-28 05:42:00,
2013-09-28 01:47:00,77.0,74.2,29.89,North,5,1.6,5.0,91,0.00,CLR,,0.00,WeatherDisplay:10.37,2013-09-28 05:47:00,
2013-09-28 01:52:00,77.2,74.4,29.89,NNW,346,2.6,3.5,91,0.00,CLR,,0.00,WeatherDisplay:10.37,2013-09-28 05:52:00,
2013-09-28 01:57:00,77.3,74.1,29.89,NNW,345,3.1,5.8,90,0.00,CLR,,0.00,WeatherDisplay:10.37,2013-09-28 05:57:00,
2013-09-28 02:02:00,77.5,74.3,29.89,North,355,2.8,5.8,90,0.00,CLR,,0.00,WeatherDisplay:10.37,2013-09-28 06:02:00,
2013-09-28 02:07:00,77.6,74.4,29.88,NNE,23,2.6,4.6,90,0.00,CLR,,0.00,WeatherDisplay:10.37,2013-09-28 06:07:00,
2013-09-28 02:12:00,77.6,74.4,29.88,NW,323,0.4,2.3,90,0.00,CLR,,0.00,WeatherDisplay:10.37,2013-09-28 06:12:00,
2013-09-28 02:17:00,77.6,74.8,29.88,NW,316,0.8,2.3,91,0.00,CLR,,0.00,WeatherDisplay:10.37,2013-09-28 06:17:00,
2013-09-28 02:22:00,77.6,74.4,29.88,NW,318,0.0,0.0,90,0.00,CLR,,0.00,WeatherDisplay:10.37,2013-09-28 06:22:00,
2013-09-28 02:27:00,77.5,74.7,29.88,NW,318,0.0,0.0,91,0.00,CLR,,0.00,WeatherDisplay:10.37,2013-09-28 06:27:00,
2013-09-28 02:32:00,77.4,74.2,29.88,NW,318,0.3,1.2,90,0.00,CLR,,0.00,WeatherDisplay:10.37,2013-09-28 06:32:00,
2013-09-28 02:37:00,77.2,74.0,29.88,NW,318,0.0,0.0,90,0.00,CLR,,0.00,WeatherDisplay:10.37,2013-09-28 06:37:00,
2013-09-28 02:42:00,77.1,73.9,29.88,NW,318,0.0,0.0,90,0.00,CLR,,0.00,WeatherDisplay:10.37,2013-09-28 06:42:00,
2013-09-28 02:47:00,76.9,74.1,29.88,NW,318,0.0,0.0,91,0.00,CLR,,0.00,WeatherDisplay:10.37,2013-09-28 06:47:00,
2013-09-28 02:52:00,76.8,74.0,29.88,NW,318,0.0,0.0,91,0.00,CLR,,0.00,WeatherDisplay:10.37,2013-09-28 06:52:00,
2013-09-28 02:57:00,76.7,73.9,29.87,NW,318,0.0,0.0,91,0.00,CLR,,0.00,WeatherDisplay:10.37,2013-09-28 06:57:00,
2013-09-28 03:02:00,76.5,73.7,29.87,NW,318,0.0,0.0,91,0.00,CLR,,0.00,WeatherDisplay:10.37,2013-09-28 07:02:00,
2013-09-28 03:07:00,76.4,73.6,29.87,NW,318,0.0,0.0,91,0.00,CLR,,0.00,WeatherDisplay:10.37,2013-09-28 07:07:00,
2013-09-28 03:12:00,76.3,73.8,29.87,NW,318,0.0,0.0,92,0.00,CLR,,0.00,WeatherDisplay:10.37,2013-09-28 07:12:00,
2013-09-28 03:17:00,76.1,73.6,29.87,NW,318,0.0,0.0,92,0.00,CLR,,0.00,WeatherDisplay:10.37,2013-09-28 07:17:00,
2013-09-28 03:22:00,76.1,73.9,29.87,NW,318,0.0,0.0,93,0.00,CLR,,0.00,WeatherDisplay:10.37,2013-09-28 07:22:00,
2013-09-28 03:27:00,76.0,73.8,29.87,NW,318,0.0,0.0,93,0.00,CLR,,0.00,WeatherDisplay:10.37,2013-09-28 07:27:00,
2013-09-28 03:32:00,75.9,73.7,29.87,NW,318,0.0,0.0,93,0.00,CLR,,0.00,WeatherDisplay:10.37,2013-09-28 07:32:00,
2013-09-28 03:37:00,75.7,73.5,29.87,NW,318,0.0,0.0,93,0.00,CLR,,0.00,WeatherDisplay:10.37,2013-09-28 07:37:00,
2013-09-28 03:42:00,75.7,73.5,29.87,NW,318,0.0,0.0,93,0.00,CLR,,0.00,WeatherDisplay:10.37,2013-09-28 07:42:00,
2013-09-28 03:47:00,75.6,73.4,29.87,NW,318,0.0,0.0,93,0.00,CLR,,0.00,WeatherDisplay:10.37,2013-09-28 07:47:00,
2013-09-28 03:52:00,75.5,73.3,29.87,NW,318,0.0,0.0,93,0.00,CLR,,0.00,WeatherDisplay:10.37,2013-09-28 07:52:00,
2013-09-28 03:57:00,75.5,73.7,29.87,NW,318,0.0,0.0,94,0.00,CLR,,0.00,WeatherDisplay:10.37,2013-09-28 07:57:00,
2013-09-28 04:02:00,75.6,73.8,29.87,NW,318,0.0,0.0,94,0.00,CLR,,0.00,WeatherDisplay:10.37,2013-09-28 08:02:00,
2013-09-28 04:07:00,75.6,74.1,29.87,NW,318,0.0,0.0,95,0.00,CLR,,0.00,WeatherDisplay:10.37,2013-09-28 08:07:00,
2013-09-28 04:12:00,75.6,74.1,29.87,NW,318,0.0,0.0,95,0.00,CLR,,0.00,WeatherDisplay:10.37,2013-09-28 08:12:00,
2013-09-28 04:17:00,75.6,74.1,29.87,NW,318,0.0,0.0,95,0.00,CLR,,0.00,WeatherDisplay:10.37,2013-09-28 08:17:00,
2013-09-28 04:22:00,75.4,73.6,29.87,NW,318,0.0,1.2,94,0.00,CLR,,0.00,WeatherDisplay:10.37,2013-09-28 08:22:00,
2013-09-28 04:27:00,75.2,73.4,29.87,NW,318,0.0,0.0,94,0.00,CLR,,0.00,WeatherDisplay:10.37,2013-09-28 08:27:00,
2013-09-28 04:32:00,75.1,73.3,29.87,NW,318,0.0,0.0,94,0.00,CLR,,0.00,WeatherDisplay:10.37,2013-09-28 08:32:00,
2013-09-28 04:37:00,75.0,73.5,29.87,NW,318,0.0,0.0,95,0.00,CLR,,0.00,WeatherDisplay:10.37,2013-09-28 08:37:00,
2013-09-28 04:42:00,74.9,73.4,29.87,NW,318,0.0,0.0,95,0.00,CLR,,0.00,WeatherDisplay:10.37,2013-09-28 08:42:00,
2013-09-28 04:47:00,74.9,73.4,29.87,NW,318,0.0,0.0,95,0.00,CLR,,0.00,WeatherDisplay:10.37,2013-09-28 08:47:00,
2013-09-28 04:52:00,74.8,73.3,29.87,NW,318,0.0,0.0,95,0.00,CLR,,0.00,WeatherDisplay:10.37,2013-09-28 08:52:00,
2013-09-28 04:58:00,74.7,72.9,29.87,NW,318,0.0,1.2,94,0.00,CLR,,0.00,WeatherDisplay:10.37,2013-09-28 08:58:00,
2013-09-28 05:03:00,74.7,72.9,29.87,NW,318,0.0,0.0,94,0.00,CLR,,0.00,WeatherDisplay:10.37,2013-09-28 09:03:00,
2013-09-28 05:08:00,74.7,72.9,29.87,NW,318,0.0,0.0,94,0.00,CLR,,0.00,WeatherDisplay:10.37,2013-09-28 09:08:00,
2013-09-28 05:13:00,74.7,72.9,29.87,NW,318,0.0,0.0,94,0.00,CLR,,0.00,WeatherDisplay:10.37,2013-09-28 09:13:00,
2013-09-28 05:18:00,74.7,72.5,29.87,NW,318,0.0,0.0,93,0.00,CLR,,0.00,WeatherDisplay:10.37,2013-09-28 09:18:00,
2013-09-28 05:23:00,74.7,72.9,29.87,NW,318,0.0,0.0,94,0.00,CLR,,0.00,WeatherDisplay:10.37,2013-09-28 09:23:00,
2013-09-28 05:28:00,74.6,72.8,29.87,NW,318,0.0,0.0,94,0.00,CLR,,0.00,WeatherDisplay:10.37,2013-09-28 09:28:00,
2013-09-28 05:33:00,74.6,72.8,29.87,NW,318,0.0,0.0,94,0.00,CLR,,0.00,WeatherDisplay:10.37,2013-09-28 09:33:00,
2013-09-28 05:38:00,74.6,72.8,29.88,NW,318,0.0,0.0,94,0.00,CLR,,0.00,WeatherDisplay:10.37,2013-09-28 09:38:00,
2013-09-28 05:43:00,74.5,72.7,29.88,NW,318,0.0,0.0,94,0.00,CLR,,0.00,WeatherDisplay:10.37,2013-09-28 09:43:00,
2013-09-28 05:48:00,74.4,72.6,29.88,NW,318,0.0,0.0,94,0.00,CLR,,0.00,WeatherDisplay:10.37,2013-09-28 09:48:00,
2013-09-28 05:53:00,74.3,72.5,29.88,NW,318,0.0,0.0,94,0.00,CLR,,0.00,WeatherDisplay:10.37,2013-09-28 09:53:00,
2013-09-28 05:58:00,74.3,72.5,29.88,NW,318,0.0,1.2,94,0.00,CLR,,0.00,WeatherDisplay:10.37,2013-09-28 09:58:00,
2013-09-28 06:03:00,74.4,72.6,29.88,NW,318,0.0,1.2,94,0.00,CLR,,0.00,WeatherDisplay:10.37,2013-09-28 10:03:00,
2013-09-28 06:08:00,74.5,72.7,29.88,NW,318,0.2,1.2,94,0.00,CLR,,0.00,WeatherDisplay:10.37,2013-09-28 10:08:00,
2013-09-28 06:13:00,74.5,72.7,29.88,NW,321,0.6,2.3,94,0.00,CLR,,0.00,WeatherDisplay:10.37,2013-09-28 10:13:00,
2013-09-28 06:18:00,74.5,72.7,29.88,NW,321,0.7,2.3,94,0.00,CLR,,0.00,WeatherDisplay:10.37,2013-09-28 10:18:00,
2013-09-28 06:23:00,74.5,72.7,29.88,NW,321,1.0,3.5,94,0.00,CLR,,0.00,WeatherDisplay:10.37,2013-09-28 10:23:00,
2013-09-28 06:28:00,74.5,72.7,29.88,NNW,331,1.0,3.5,94,0.00,CLR,,0.00,WeatherDisplay:10.37,2013-09-28 10:28:00,
2013-09-28 06:33:00,74.6,72.8,29.88,NW,317,0.2,1.2,94,0.00,CLR,,0.00,WeatherDisplay:10.37,2013-09-28 10:33:00,
2013-09-28 06:38:00,74.6,72.8,29.88,NW,317,0.2,1.2,94,0.00,CLR,,0.00,WeatherDisplay:10.37,2013-09-28 10:38:00,
2013-09-28 06:43:00,74.6,72.8,29.89,NW,317,0.0,0.0,94,0.00,CLR,,0.00,WeatherDisplay:10.37,2013-09-28 10:43:00,
2013-09-28 06:48:00,74.6,72.8,29.89,NW,317,0.0,0.0,94,0.00,CLR,,0.00,WeatherDisplay:10.37,2013-09-28 10:48:00,
2013-09-28 06:54:00,74.6,72.8,29.89,NW,317,0.1,1.2,94,0.00,CLR,,0.00,WeatherDisplay:10.37,2013-09-28 10:54:00,
2013-09-28 06:59:00,74.7,72.9,29.89,NW,317,0.0,1.2,94,0.00,CLR,,0.00,WeatherDisplay:10.37,2013-09-28 10:59:00,
2013-09-28 07:04:00,74.7,72.9,29.89,NW,317,0.0,0.0,94,0.00,CLR,,0.00,WeatherDisplay:10.37,2013-09-28 11:04:00,
2013-09-28 07:09:00,74.7,72.9,29.89,NW,317,0.0,0.0,94,0.00,CLR,,0.00,WeatherDisplay:10.37,2013-09-28 11:09:00,
2013-09-28 07:14:00,74.8,73.0,29.89,NW,317,0.0,0.0,94,0.00,CLR,,0.00,WeatherDisplay:10.37,2013-09-28 11:14:00,
2013-09-28 07:19:00,74.8,73.0,29.89,NW,317,1.1,2.3,94,0.00,CLR,,0.00,WeatherDisplay:10.37,2013-09-28 11:19:00,
2013-09-28 07:24:00,74.7,72.9,29.90,NW,317,0.1,1.2,94,0.00,CLR,,0.00,WeatherDisplay:10.37,2013-09-28 11:24:00,
2013-09-28 07:29:00,74.7,72.9,29.90,NW,317,0.4,1.2,94,0.00,CLR,,0.00,WeatherDisplay:10.37,2013-09-28 11:29:00,
2013-09-28 07:34:00,74.8,73.0,29.90,NW,317,1.1,2.3,94,0.00,CLR,,0.00,WeatherDisplay:10.37,2013-09-28 11:34:00,
2013-09-28 07:39:00,74.9,73.1,29.90,NW,317,0.0,0.0,94,0.00,CLR,,0.00,WeatherDisplay:10.37,2013-09-28 11:39:00,
2013-09-28 07:44:00,75.1,73.3,29.90,NW,317,0.1,1.2,94,0.00,CLR,,0.00,WeatherDisplay:10.37,2013-09-28 11:44:00,
2013-09-28 07:49:00,75.3,73.5,29.90,NW,319,1.8,3.5,94,0.00,CLR,,0.00,WeatherDisplay:10.37,2013-09-28 11:49:00,
2013-09-28 07:54:00,75.7,73.8,29.91,NNW,344,0.9,2.3,94,0.00,CLR,,0.00,WeatherDisplay:10.37,2013-09-28 11:54:00,
2013-09-28 07:59:00,76.2,74.0,29.91,NW,311,1.4,3.5,93,0.00,CLR,,0.00,WeatherDisplay:10.37,2013-09-28 11:59:00,
2013-09-28 08:04:00,76.6,74.1,29.91,NW,326,1.5,3.5,92,0.00,CLR,,0.00,WeatherDisplay:10.37,2013-09-28 12:04:00,
2013-09-28 08:09:00,77.1,74.3,29.91,NW,319,0.2,2.3,91,0.00,CLR,,0.00,WeatherDisplay:10.37,2013-09-28 12:09:00,
2013-09-28 08:14:00,77.6,74.4,29.91,NNW,331,1.0,3.5,90,0.00,CLR,,0.00,WeatherDisplay:10.37,2013-09-28 12:14:00,
2013-09-28 08:19:00,78.0,74.5,29.91,NNW,331,0.1,1.2,89,0.00,CLR,,0.00,WeatherDisplay:10.37,2013-09-28 12:19:00,
2013-09-28 08:24:00,78.4,74.9,29.92,NW,323,0.1,1.2,89,0.00,CLR,,0.00,WeatherDisplay:10.37,2013-09-28 12:24:00,
2013-09-28 08:29:00,78.8,74.9,29.92,NNW,327,0.2,2.0,88,0.00,CLR,,0.00,WeatherDisplay:10.37,2013-09-28 12:29:00,
2013-09-28 08:34:00,79.1,74.9,29.92,NNW,333,2.1,3.5,87,0.00,CLR,,0.00,WeatherDisplay:10.37,2013-09-28 12:34:00,
2013-09-28 08:39:00,79.5,75.3,29.92,NNW,340,3.6,5.8,87,0.00,CLR,,0.00,WeatherDisplay:10.37,2013-09-28 12:39:00,
2013-09-28 08:44:00,79.7,75.5,29.92,NW,320,2.4,3.5,87,0.00,CLR,,0.00,WeatherDisplay:10.37,2013-09-28 12:44:00,
2013-09-28 08:49:00,79.9,75.3,29.92,North,5,3.0,3.5,86,0.00,CLR,,0.00,WeatherDisplay:10.37,2013-09-28 12:49:00,
2013-09-28 08:54:00,80.1,75.5,29.92,NNW,348,1.6,3.5,86,0.00,CLR,,0.00,WeatherDisplay:10.37,2013-09-28 12:54:00,
2013-09-28 08:59:00,80.4,75.5,29.92,NW,320,1.8,2.3,85,0.00,CLR,,0.00,WeatherDisplay:10.37,2013-09-28 12:59:00,
2013-09-28 09:04:00,80.6,75.3,29.93,North,355,0.7,3.5,84,0.00,CLR,,0.00,WeatherDisplay:10.37,2013-09-28 13:04:00,
2013-09-28 09:09:00,80.7,75.4,29.93,NNE,12,2.1,3.5,84,0.00,CLR,,0.00,WeatherDisplay:10.37,2013-09-28 13:09:00,
2013-09-28 09:14:00,80.8,75.5,29.93,NNW,338,3.4,5.8,84,0.00,CLR,,0.00,WeatherDisplay:10.37,2013-09-28 13:14:00,
2013-09-28 09:19:00,81.0,75.3,29.93,NNE,24,2.3,3.5,83,0.00,CLR,,0.00,WeatherDisplay:10.37,2013-09-28 13:19:00,
2013-09-28 09:24:00,81.3,76.0,29.93,NW,319,1.6,3.5,84,0.00,CLR,,0.00,WeatherDisplay:10.37,2013-09-28 13:24:00,
2013-09-28 09:29:00,81.5,75.5,29.93,NNE,18,4.5,5.0,82,0.00,CLR,,0.00,WeatherDisplay:10.37,2013-09-28 13:29:00,
2013-09-28 09:34:00,81.6,75.2,29.93,NE,49,2.0,3.5,81,0.00,CLR,,0.00,WeatherDisplay:10.37,2013-09-28 13:34:00,
2013-09-28 09:39:00,81.9,75.9,29.93,North,5,0.5,4.6,82,0.00,CLR,,0.00,WeatherDisplay:10.37,2013-09-28 13:39:00,
2013-09-28 09:44:00,82.3,75.5,29.94,NNE,25,2.5,8.1,80,0.00,CLR,,0.00,WeatherDisplay:10.37,2013-09-28 13:44:00,
2013-09-28 09:49:00,82.3,75.5,29.94,NNE,19,3.1,4.6,80,0.00,CLR,,0.00,WeatherDisplay:10.37,2013-09-28 13:49:00,
2013-09-28 09:54:00,82.5,74.9,29.94,NE,42,3.2,6.9,78,0.00,CLR,,0.00,WeatherDisplay:10.37,2013-09-28 13:54:00,
2013-09-28 09:59:00,82.6,75.0,29.94,NNE,32,3.2,6.9,78,0.00,CLR,,0.00,WeatherDisplay:10.37,2013-09-28 13:59:00,
2013-09-28 10:04:00,82.8,75.2,29.94,NW,313,2.5,4.6,78,0.00,CLR,,0.00,WeatherDisplay:10.37,2013-09-28 14:04:00,
2013-09-28 10:09:00,83.1,75.5,29.94,NE,34,2.1,3.5,78,0.00,CLR,,0.00,WeatherDisplay:10.37,2013-09-28 14:09:00,
2013-09-28 10:14:00,83.5,75.1,29.95,NE,45,2.9,6.9,76,0.00,CLR,,0.00,WeatherDisplay:10.37,2013-09-28 14:14:00,
2013-09-28 10:19:00,83.5,74.3,29.95,ENE,59,3.5,3.5,74,0.00,CLR,,0.00,WeatherDisplay:10.37,2013-09-28 14:19:00,
2013-09-28 10:24:00,83.6,75.2,29.95,NNE,27,2.0,3.5,76,0.00,CLR,,0.00,WeatherDisplay:10.37,2013-09-28 14:24:00,
2013-09-28 10:29:00,83.8,75.4,29.94,NNE,32,4.4,8.1,76,0.00,CLR,,0.00,WeatherDisplay:10.37,2013-09-28 14:29:00,
2013-09-28 10:34:00,83.6,76.0,29.94,NE,34,1.1,2.3,78,0.00,CLR,,0.00,WeatherDisplay:10.37,2013-09-28 14:34:00,
2013-09-28 10:39:00,83.8,75.4,29.95,NNE,28,2.5,3.5,76,0.00,CLR,,0.00,WeatherDisplay:10.37,2013-09-28 14:39:00,
2013-09-28 10:44:00,83.3,74.9,29.94,NNW,340,4.7,11.5,76,0.00,CLR,,0.00,WeatherDisplay:10.37,2013-09-28 14:44:00,
2013-09-28 10:50:00,83.1,75.9,29.94,NNW,338,4.8,5.8,79,0.00,CLR,,0.00,WeatherDisplay:10.37,2013-09-28 14:50:00,
2013-09-28 10:55:00,83.4,75.4,29.95,NE,44,4.0,6.9,77,0.00,CLR,,0.00,WeatherDisplay:10.37,2013-09-28 14:55:00,
2013-09-28 11:00:00,83.6,75.2,29.94,NNE,33,5.0,6.9,76,0.00,CLR,,0.00,WeatherDisplay:10.37,2013-09-28 15:00:00,
2013-09-28 11:05:00,83.6,74.8,29.94,NNE,22,3.0,3.5,75,0.00,CLR,,0.00,WeatherDisplay:10.37,2013-09-28 15:05:00,
2013-09-28 11:10:00,83.7,74.5,29.94,NE,45,2.9,4.6,74,0.00,CLR,,0.00,WeatherDisplay:10.37,2013-09-28 15:10:00,
2013-09-28 11:15:00,84.1,74.9,29.94,NNE,32,6.4,9.2,74,0.00,CLR,,0.00,WeatherDisplay:10.37,2013-09-28 15:15:00,
2013-09-28 11:20:00,84.0,74.4,29.94,NE,36,4.3,10.4,73,0.00,CLR,,0.00,WeatherDisplay:10.37,2013-09-28 15:20:00,
2013-09-28 11:25:00,83.8,74.6,29.94,NNE,33,1.8,3.5,74,0.00,CLR,,0.00,WeatherDisplay:10.37,2013-09-28 15:25:00,
2013-09-28 11:30:00,83.5,74.3,29.94,NE,54,4.1,5.8,74,0.00,CLR,,0.00,WeatherDisplay:10.37,2013-09-28 15:30:00,
2013-09-28 11:35:00,83.4,73.4,29.94,East,88,3.6,9.2,72,0.00,CLR,,0.00,WeatherDisplay:10.37,2013-09-28 15:35:00,
2013-09-28 11:40:00,83.6,74.0,29.94,NNE,28,2.8,4.6,73,0.00,CLR,,0.00,WeatherDisplay:10.37,2013-09-28 15:40:00,
2013-09-28 11:45:00,84.4,74.8,29.94,NE,36,5.1,8.1,73,0.00,CLR,,0.00,WeatherDisplay:10.37,2013-09-28 15:45:00,
2013-09-28 11:50:00,84.5,73.6,29.94,ENE,61,3.8,5.8,70,0.00,CLR,,0.00,WeatherDisplay:10.37,2013-09-28 15:50:00,
2013-09-28 11:55:00,84.9,74.0,29.94,NNE,26,6.5,8.1,70,0.00,CLR,,0.00,WeatherDisplay:10.37,2013-09-28 15:55:00,
2013-09-28 12:00:00,85.1,74.2,29.94,ESE,113,3.4,8.1,70,0.00,CLR,,0.00,WeatherDisplay:10.37,2013-09-28 16:00:00,
2013-09-28 12:05:00,85.3,74.4,29.94,NE,34,2.9,4.6,70,0.00,CLR,,0.00,WeatherDisplay:10.37,2013-09-28 16:05:00,
2013-09-28 12:10:00,84.8,74.3,29.94,ENE,75,5.8,8.1,71,0.00,CLR,,0.00,WeatherDisplay:10.37,2013-09-28 16:10:00,
2013-09-28 12:15:00,84.3,74.3,29.94,NNE,26,4.5,6.0,72,0.00,CLR,,0.00,WeatherDisplay:10.37,2013-09-28 16:15:00,
2013-09-28 12:20:00,84.5,73.6,29.94,ENE,65,3.4,8.1,70,0.00,CLR,,0.00,WeatherDisplay:10.37,2013-09-28 16:20:00,
2013-09-28 12:25:00,84.8,73.5,29.94,NNE,30,4.3,6.9,69,0.00,CLR,,0.00,WeatherDisplay:10.37,2013-09-28 16:25:00,
2013-09-28 12:30:00,85.3,73.1,29.94,NE,55,3.5,9.2,67,0.00,CLR,,0.00,WeatherDisplay:10.37,2013-09-28 16:30:00,
2013-09-28 12:35:00,85.5,72.8,29.93,East,94,4.0,6.9,66,0.00,CLR,,0.00,WeatherDisplay:10.37,2013-09-28 16:35:00,
2013-09-28 12:40:00,85.7,72.6,29.93,ENE,75,6.9,12.7,65,0.00,CLR,,0.00,WeatherDisplay:10.37,2013-09-28 16:40:00,
2013-09-28 12:45:00,85.9,72.8,29.93,NE,43,5.0,8.1,65,0.00,CLR,,0.00,WeatherDisplay:10.37,2013-09-28 16:45:00,
2013-09-28 12:50:00,86.0,72.9,29.93,NE,46,4.5,10.4,65,0.00,CLR,,0.00,WeatherDisplay:10.37,2013-09-28 16:50:00,
2013-09-28 14:39:00,84.5,73.2,29.90,East,80,1.2,1.2,69,0.00,CLR,,0.00,WeatherDisplay:10.37,2013-09-28 18:39:00,
2013-09-28 14:44:00,84.5,72.8,29.90,East,81,6.9,10.4,68,0.00,CLR,,0.00,WeatherDisplay:10.37,2013-09-28 18:44:00,
2013-09-28 14:49:00,84.4,72.7,29.90,NE,51,3.4,6.9,68,0.00,CLR,,0.00,WeatherDisplay:10.37,2013-09-28 18:49:00,
2013-09-28 14:54:00,84.4,73.1,29.89,ENE,69,4.7,11.5,69,0.00,CLR,,0.00,WeatherDisplay:10.37,2013-09-28 18:54:00,
2013-09-28 14:59:00,84.3,73.0,29.89,ESE,115,3.9,11.5,69,0.00,CLR,,0.00,WeatherDisplay:10.37,2013-09-28 18:59:00,
2013-09-28 15:04:00,84.1,73.3,29.89,NE,40,4.2,5.8,70,0.00,CLR,,0.00,WeatherDisplay:10.37,2013-09-28 19:04:00,
2013-09-28 15:09:00,84.0,72.7,29.89,East,88,5.6,8.1,69,0.00,CLR,,0.00,WeatherDisplay:10.37,2013-09-28 19:09:00,
2013-09-28 15:14:00,84.0,73.6,29.89,East,95,4.7,6.9,71,0.00,CLR,,0.00,WeatherDisplay:10.37,2013-09-28 19:14:00,
2013-09-28 15:19:00,84.0,73.2,29.89,NNE,28,5.5,11.5,70,0.00,CLR,,0.00,WeatherDisplay:10.37,2013-09-28 19:19:00,
2013-09-28 15:24:00,84.2,73.8,29.89,ESE,104,4.9,9.2,71,0.00,CLR,,0.00,WeatherDisplay:10.37,2013-09-28 19:24:00,
2013-09-28 15:30:00,84.7,74.7,29.89,ENE,73,6.1,6.9,72,0.00,CLR,,0.00,WeatherDisplay:10.37,2013-09-28 19:30:00,
2013-09-28 15:35:00,84.6,74.2,29.88,East,93,3.3,5.8,71,0.00,CLR,,0.00,WeatherDisplay:10.37,2013-09-28 19:35:00,
2013-09-28 15:40:00,84.7,74.3,29.88,ENE,72,3.1,4.6,71,0.00,CLR,,0.00,WeatherDisplay:10.37,2013-09-28 19:40:00,
2013-09-28 15:45:00,84.7,73.8,29.88,SSE,164,4.5,4.6,70,0.00,CLR,,0.00,WeatherDisplay:10.37,2013-09-28 19:45:00,
2013-09-28 15:50:00,85.0,73.7,29.88,East,98,5.6,8.1,69,0.00,CLR,,0.00,WeatherDisplay:10.37,2013-09-28 19:50:00,
2013-09-28 15:55:00,85.2,73.4,29.88,ENE,76,6.0,8.1,68,0.00,CLR,,0.00,WeatherDisplay:10.37,2013-09-28 19:55:00,
2013-09-28 16:00:00,84.9,74.0,29.88,NE,42,5.1,10.4,70,0.00,CLR,,0.00,WeatherDisplay:10.37,2013-09-28 20:00:00,
2013-09-28 16:05:00,84.7,73.4,29.88,ENE,68,3.8,5.0,69,0.00,CLR,,0.00,WeatherDisplay:10.37,2013-09-28 20:05:00,
2013-09-28 16:10:00,85.1,73.8,29.88,NE,55,4.1,10.4,69,0.00,CLR,,0.00,WeatherDisplay:10.37,2013-09-28 20:10:00,
2013-09-28 16:15:00,84.9,73.6,29.88,ESE,107,3.2,8.1,69,0.00,CLR,,0.00,WeatherDisplay:10.37,2013-09-28 20:15:00,
2013-09-28 16:20:00,84.4,73.1,29.88,East,86,3.9,9.2,69,0.00,CLR,,0.00,WeatherDisplay:10.37,2013-09-28 20:20:00,
2013-09-28 16:25:00,84.3,73.9,29.88,East,86,9.0,13.8,71,0.00,CLR,,0.00,WeatherDisplay:10.37,2013-09-28 20:25:00,
2013-09-28 16:30:00,84.0,74.0,29.88,NE,49,3.7,4.6,72,0.00,CLR,,0.00,WeatherDisplay:10.37,2013-09-28 20:30:00,
2013-09-28 16:35:00,83.6,74.0,29.88,NE,56,3.3,6.9,73,0.00,CLR,,0.00,WeatherDisplay:10.37,2013-09-28 20:35:00,
2013-09-28 16:40:00,83.2,73.2,29.88,NNE,28,6.5,8.1,72,0.00,CLR,,0.00,WeatherDisplay:10.37,2013-09-28 20:40:00,
2013-09-28 16:46:00,83.8,74.2,29.88,ENE,68,5.9,10.4,73,0.00,CLR,,0.00,WeatherDisplay:10.37,2013-09-28 20:46:00,
2013-09-28 16:51:00,84.2,73.8,29.87,NE,46,8.3,12.7,71,0.00,CLR,,0.00,WeatherDisplay:10.37,2013-09-28 20:51:00,
2013-09-28 16:56:00,84.1,73.7,29.87,ENE,76,5.4,10.4,71,0.00,CLR,,0.00,WeatherDisplay:10.37,2013-09-28 20:56:00,
2013-09-28 17:01:00,84.1,73.7,29.87,ENE,63,7.1,10.4,71,0.00,CLR,,0.00,WeatherDisplay:10.37,2013-09-28 21:01:00,
2013-09-28 17:06:00,83.3,73.7,29.88,NE,44,2.7,3.5,73,0.00,CLR,,0.00,WeatherDisplay:10.37,2013-09-28 21:06:00,
2013-09-28 17:11:00,83.0,74.3,29.88,NE,36,5.1,9.2,75,0.00,CLR,,0.00,WeatherDisplay:10.37,2013-09-28 21:11:00,
2013-09-28 17:16:00,82.9,74.6,29.88,ENE,59,4.0,6.9,76,0.00,CLR,,0.00,WeatherDisplay:10.37,2013-09-28 21:16:00,
2013-09-28 17:21:00,82.6,73.9,29.88,NE,51,3.5,5.8,75,0.00,CLR,,0.00,WeatherDisplay:10.37,2013-09-28 21:21:00,
2013-09-28 17:26:00,82.5,73.4,29.88,NE,53,4.9,9.2,74,0.00,CLR,,0.00,WeatherDisplay:10.37,2013-09-28 21:26:00,
2013-09-28 17:31:00,82.4,73.7,29.88,NE,50,3.0,6.0,75,0.00,CLR,,0.00,WeatherDisplay:10.37,2013-09-28 21:31:00,
2013-09-28 17:36:00,82.3,73.6,29.89,ENE,63,3.9,8.1,75,0.00,CLR,,0.00,WeatherDisplay:10.37,2013-09-28 21:36:00,
2013-09-28 17:41:00,82.2,73.5,29.89,NE,51,3.5,3.5,75,0.00,CLR,,0.00,WeatherDisplay:10.37,2013-09-28 21:41:00,
2013-09-28 17:46:00,82.2,73.1,29.89,ENE,71,6.2,8.1,74,0.00,CLR,,0.00,WeatherDisplay:10.37,2013-09-28 21:46:00,
2013-09-28 17:51:00,82.1,73.4,29.89,ENE,61,2.5,4.6,75,0.00,CLR,,0.00,WeatherDisplay:10.37,2013-09-28 21:51:00,
2013-09-28 17:56:00,82.1,73.4,29.89,NNE,22,4.7,6.9,75,0.00,CLR,,0.00,WeatherDisplay:10.37,2013-09-28 21:56:00,
2013-09-28 18:01:00,82.0,73.3,29.89,NE,42,5.2,5.8,75,0.00,CLR,,0.00,WeatherDisplay:10.37,2013-09-28 22:01:00,
2013-09-28 18:06:00,82.0,73.3,29.89,NE,35,5.7,8.1,75,0.00,CLR,,0.00,WeatherDisplay:10.37,2013-09-28 22:06:00,
2013-09-28 18:11:00,81.9,73.2,29.89,NE,56,2.6,5.8,75,0.00,CLR,,0.00,WeatherDisplay:10.37,2013-09-28 22:11:00,
2013-09-28 18:16:00,81.9,73.6,29.89,NE,43,5.0,9.2,76,0.00,CLR,,0.00,WeatherDisplay:10.37,2013-09-28 22:16:00,
2013-09-28 18:21:00,81.8,73.5,29.89,ENE,76,3.0,5.8,76,0.00,CLR,,0.00,WeatherDisplay:10.37,2013-09-28 22:21:00,
2013-09-28 18:26:00,81.7,73.4,29.89,East,79,3.6,4.6,76,0.00,CLR,,0.00,WeatherDisplay:10.37,2013-09-28 22:26:00,
2013-09-28 18:31:00,81.7,73.8,29.89,East,79,3.2,8.1,77,0.00,CLR,,0.00,WeatherDisplay:10.37,2013-09-28 22:31:00,
2013-09-28 18:36:00,81.7,73.8,29.90,East,83,3.8,6.9,77,0.00,CLR,,0.00,WeatherDisplay:10.37,2013-09-28 22:36:00,
2013-09-28 18:41:00,81.6,74.1,29.90,NE,39,2.6,3.5,78,0.00,CLR,,0.00,WeatherDisplay:10.37,2013-09-28 22:41:00,
2013-09-28 18:46:00,81.5,74.0,29.90,NE,42,2.4,3.5,78,0.00,CLR,,0.00,WeatherDisplay:10.37,2013-09-28 22:46:00,
2013-09-28 18:51:00,81.4,73.5,29.90,ENE,61,2.7,4.6,77,0.00,CLR,,0.00,WeatherDisplay:10.37,2013-09-28 22:51:00,
2013-09-28 18:56:00,81.3,73.4,29.90,NE,34,3.2,6.9,77,0.00,CLR,,0.00,WeatherDisplay:10.37,2013-09-28 22:56:00,
2013-09-28 19:01:00,81.3,73.4,29.90,NNE,21,4.9,5.8,77,0.00,CLR,,0.00,WeatherDisplay:10.37,2013-09-28 23:01:00,
2013-09-28 19:06:00,81.3,73.4,29.90,NE,36,2.0,2.3,77,0.00,CLR,,0.00,WeatherDisplay:10.37,2013-09-28 23:06:00,
2013-09-28 19:11:00,81.1,73.2,29.90,North,9,5.9,9.2,77,0.00,CLR,,0.00,WeatherDisplay:10.37,2013-09-28 23:11:00,
2013-09-28 19:16:00,81.1,72.8,29.90,NE,42,0.6,3.5,76,0.00,CLR,,0.00,WeatherDisplay:10.37,2013-09-28 23:16:00,
2013-09-28 19:21:00,81.0,73.1,29.90,NE,39,2.5,6.9,77,0.00,CLR,,0.00,WeatherDisplay:10.37,2013-09-28 23:21:00,
2013-09-28 19:26:00,80.9,73.0,29.90,NE,48,3.1,3.5,77,0.00,CLR,,0.00,WeatherDisplay:10.37,2013-09-28 23:26:00,
2013-09-28 19:31:00,80.9,73.0,29.90,NE,53,1.5,3.5,77,0.00,CLR,,0.00,WeatherDisplay:10.37,2013-09-28 23:31:00,
2013-09-28 19:36:00,80.8,73.3,29.91,NE,49,2.2,3.5,78,0.00,CLR,,0.00,WeatherDisplay:10.37,2013-09-28 23:36:00,
2013-09-28 19:41:00,80.8,73.3,29.91,NE,36,4.2,4.6,78,0.00,CLR,,0.00,WeatherDisplay:10.37,2013-09-28 23:41:00,
2013-09-28 19:46:00,80.7,73.2,29.91,NE,36,2.5,3.5,78,0.00,CLR,,0.00,WeatherDisplay:10.37,2013-09-28 23:46:00,
2013-09-28 19:52:00,80.7,73.2,29.91,NE,36,1.2,2.3,78,0.00,CLR,,0.00,WeatherDisplay:10.37,2013-09-28 23:52:00,
2013-09-28 19:57:00,80.6,73.1,29.92,NE,44,0.4,1.2,78,0.00,CLR,,0.00,WeatherDisplay:10.37,2013-09-28 23:57:00,
2013-09-28 20:02:00,80.6,73.5,29.92,NE,44,0.3,1.2,79,0.00,CLR,,0.00,WeatherDisplay:10.37,2013-09-29 00:02:00,
2013-09-28 20:07:00,80.5,73.0,29.92,NNE,29,1.7,3.5,78,0.00,CLR,,0.00,WeatherDisplay:10.37,2013-09-29 00:07:00,
2013-09-28 20:12:00,80.6,73.1,29.92,NE,38,0.6,3.5,78,0.00,CLR,,0.00,WeatherDisplay:10.37,2013-09-29 00:12:00,
2013-09-28 20:17:00,80.5,73.4,29.92,NE,39,0.0,0.0,79,0.00,CLR,,0.00,WeatherDisplay:10.37,2013-09-29 00:17:00,
2013-09-28 20:22:00,80.6,73.9,29.92,NE,39,0.0,0.0,80,0.00,CLR,,0.00,WeatherDisplay:10.37,2013-09-29 00:22:00,
2013-09-28 20:27:00,80.3,73.6,29.92,NE,42,2.2,3.5,80,0.00,CLR,,0.00,WeatherDisplay:10.37,2013-09-29 00:27:00,
2013-09-28 20:32:00,80.3,73.2,29.92,ENE,57,0.3,1.2,79,0.00,CLR,,0.00,WeatherDisplay:10.37,2013-09-29 00:32:00,
2013-09-28 20:37:00,80.4,73.7,29.92,NE,50,2.0,3.5,80,0.00,CLR,,0.00,WeatherDisplay:10.37,2013-09-29 00:37:00,
2013-09-28 20:42:00,80.5,73.8,29.93,NNE,17,8.2,17.3,80,0.00,CLR,,0.00,WeatherDisplay:10.37,2013-09-29 00:42:00,
2013-09-28 20:47:00,78.6,73.7,29.93,NNE,13,5.2,6.9,85,0.00,CLR,,0.00,WeatherDisplay:10.37,2013-09-29 00:47:00,
2013-09-28 20:52:00,77.5,73.3,29.93,North,355,5.1,10.4,87,0.01,RA,,0.01,WeatherDisplay:10.37,2013-09-29 00:52:00,
2013-09-28 20:57:00,76.4,72.9,29.94,NE,36,12.8,15.0,89,0.02,RA,,0.03,WeatherDisplay:10.37,2013-09-29 00:57:00,
2013-09-28 21:02:00,75.2,72.1,29.94,NE,38,3.8,5.8,90,0.06,RA,,0.06,WeatherDisplay:10.37,2013-09-29 01:02:00,
2013-09-28 21:07:00,74.9,72.1,29.94,NNE,17,2.7,3.5,91,0.07,RA,,0.07,WeatherDisplay:10.37,2013-09-29 01:07:00,
2013-09-28 21:12:00,74.7,71.9,29.94,NNE,17,0.0,2.3,91,0.08,RA,,0.08,WeatherDisplay:10.37,2013-09-29 01:12:00,
2013-09-28 21:17:00,74.7,72.2,29.94,NNE,17,0.0,1.2,92,0.09,RA,,0.09,WeatherDisplay:10.37,2013-09-29 01:17:00,
2013-09-28 21:22:00,74.6,72.1,29.94,NNE,17,0.0,0.0,92,0.09,RA,,0.09,WeatherDisplay:10.37,2013-09-29 01:22:00,
2013-09-28 21:27:00,74.7,72.5,29.94,NNE,17,0.0,0.0,93,0.09,CLR,,0.09,WeatherDisplay:10.37,2013-09-29 01:27:00,
2013-09-28 21:32:00,74.9,73.1,29.94,NNE,17,0.2,1.2,94,0.09,CLR,,0.09,WeatherDisplay:10.37,2013-09-29 01:32:00,
2013-09-28 21:37:00,75.2,73.4,29.95,NNE,17,0.0,0.0,94,0.09,CLR,,0.09,WeatherDisplay:10.37,2013-09-29 01:37:00,
2013-09-28 21:43:00,75.2,73.4,29.95,NNE,17,0.5,1.2,94,0.09,CLR,,0.09,WeatherDisplay:10.37,2013-09-29 01:43:00,
2013-09-28 21:48:00,75.3,73.5,29.95,NNE,17,0.0,0.0,94,0.09,CLR,,0.09,WeatherDisplay:10.37,2013-09-29 01:48:00,
2013-09-28 21:53:00,75.2,73.4,29.95,NNE,17,0.0,0.0,94,0.08,CLR,,0.09,WeatherDisplay:10.37,2013-09-29 01:53:00,
2013-09-28 21:58:00,75.2,73.4,29.95,NNE,17,0.0,0.0,94,0.06,CLR,,0.09,WeatherDisplay:10.37,2013-09-29 01:58:00,
2013-09-28 22:03:00,75.3,73.5,29.95,NNE,17,0.2,1.2,94,0.03,CLR,,0.09,WeatherDisplay:10.37,2013-09-29 02:03:00,
2013-09-28 22:08:00,75.2,73.7,29.95,NNE,17,0.5,3.5,95,0.02,CLR,,0.09,WeatherDisplay:10.37,2013-09-29 02:08:00,
2013-09-28 22:13:00,75.3,73.8,29.95,NNE,17,0.2,1.2,95,0.01,CLR,,0.09,WeatherDisplay:10.37,2013-09-29 02:13:00,
2013-09-28 22:18:00,75.4,73.9,29.95,NNE,17,0.7,2.3,95,0.00,CLR,,0.09,WeatherDisplay:10.37,2013-09-29 02:18:00,
2013-09-28 22:23:00,75.3,73.8,29.95,NNE,17,0.2,1.2,95,0.00,CLR,,0.09,WeatherDisplay:10.37,2013-09-29 02:23:00,
2013-09-28 22:28:00,75.6,74.1,29.95,NNE,17,0.0,0.0,95,0.00,CLR,,0.09,WeatherDisplay:10.37,2013-09-29 02:28:00,
2013-09-28 22:33:00,75.6,74.1,29.95,NNE,17,0.0,0.0,95,0.00,CLR,,0.09,WeatherDisplay:10.37,2013-09-29 02:33:00,
2013-09-28 22:38:00,75.5,73.7,29.95,NNE,17,2.0,3.5,94,0.00,CLR,,0.09,WeatherDisplay:10.37,2013-09-29 02:38:00,
2013-09-28 22:43:00,75.4,73.2,29.95,NNE,28,3.0,6.0,93,0.00,CLR,,0.09,WeatherDisplay:10.37,2013-09-29 02:43:00,
2013-09-28 22:48:00,75.5,73.3,29.96,ENE,58,3.0,5.0,93,0.00,CLR,,0.09,WeatherDisplay:10.37,2013-09-29 02:48:00,
2013-09-28 22:53:00,75.2,72.7,29.96,ESE,108,3.4,8.1,92,0.02,RA,,0.12,WeatherDisplay:10.37,2013-09-29 02:53:00,
2013-09-28 22:58:00,74.8,72.6,29.96,ESE,106,1.3,3.5,93,0.04,RA,,0.13,WeatherDisplay:10.37,2013-09-29 02:58:00,
2013-09-28 23:03:00,74.7,72.5,29.96,East,98,2.2,4.6,93,0.04,RA,,0.13,WeatherDisplay:10.37,2013-09-29 03:03:00,
2013-09-28 23:08:00,74.6,72.4,29.96,East,98,0.0,1.2,93,0.04,CLR,,0.13,WeatherDisplay:10.37,2013-09-29 03:08:00,
2013-09-28 23:13:00,74.6,72.8,29.95,East,98,0.0,0.0,94,0.04,CLR,,0.13,WeatherDisplay:10.37,2013-09-29 03:13:00,
2013-09-28 23:18:00,74.6,72.8,29.95,East,98,0.0,0.0,94,0.04,CLR,,0.13,WeatherDisplay:10.37,2013-09-29 03:18:00,
2013-09-28 23:24:00,74.6,72.8,29.95,East,98,0.0,0.0,94,0.04,CLR,,0.13,WeatherDisplay:10.37,2013-09-29 03:24:00,
2013-09-28 23:29:00,74.6,72.8,29.95,East,98,0.0,1.2,94,0.04,CLR,,0.13,WeatherDisplay:10.37,2013-09-29 03:29:00,
2013-09-28 23:34:00,74.5,72.7,29.95,East,80,0.7,2.3,94,0.05,RA,,0.14,WeatherDisplay:10.37,2013-09-29 03:34:00,
2013-09-28 23:39:00,74.5,73.0,29.95,ENE,78,1.7,3.5,95,0.06,RA,,0.15,WeatherDisplay:10.37,2013-09-29 03:39:00,
2013-09-28 23:44:00,74.4,72.9,29.95,ENE,77,0.4,2.3,95,0.08,RA,,0.17,WeatherDisplay:10.37,2013-09-29 03:44:00,
2013-09-28 23:49:00,74.4,72.9,29.95,ENE,77,1.6,3.5,95,0.10,RA,,0.19,WeatherDisplay:10.37,2013-09-29 03:49:00,
2013-09-28 23:54:00,74.3,72.8,29.95,ENE,74,1.0,3.5,95,0.14,RA,,0.27,WeatherDisplay:10.37,2013-09-29 03:54:00,
2013-09-28 23:59:00,74.4,73.2,29.95,ENE,71,1.7,3.5,96,0.19,RA,,0.32,WeatherDisplay:10.37,2013-09-29 03:59:00,